Epoch 2007 Sept. 17.0 TT = JDT 2454360.5 T 2007 Sept. 13.08711 TT MPC q 2.0479348 (2000.0) P Q n 0.14852351 Peri. 274.16160 +0.92434588 -0.35250857 a 3.5313377 Node 106.52894 +0.38155559 +0.85413084 e 0.4200683 Incl. 8.76118 -0.00015313 +0.38235874 P 6.64
m1 = 9.0 + 5 logΔ + 20.0 log r(t - 70)